Somerville, NJ

10:28 AM EST on November 22, 2017 (GMT -0500)
Somerset

Weather History for KSMQ - February, 2014

Change the Weather History Date:

Friday, February 28, 2014

  Actual Average Record
Temperature  
Mean Temperature 14 °F -  
Max Temperature 23 °F 44 °F 65 °F (1954)
Min Temperature 5 °F 23 °F 2 °F (1935)
Degree Days  
Heating Degree Days 51    
Moisture  
Dew Point -6 °F    
Average Humidity 45    
Maximum Humidity 76    
Minimum Humidity 30    
Precipitation  
Precipitation 0.00 in - - ()
Sea Level Pressure  
Sea Level Pressure 30.35 in    
Wind  
Wind Speed 5 mph (NW)    
Max Wind Speed 10 mph    
Max Gust Speed 21 mph    
Visibility 10 miles    
Events      
Averages and records for this station are not official NWS values.
T = Trace of Precipitation, MM = Missing Value Source: NWS Daily Summary

Daily Weather History Graph

Daily Weather History Graph

Search for Another Location

Airport or City:

Trip Planner

Search our weather history database for the weather conditions in past years. The results will help you decide how hot, cold, wet, or windy it might be!

Date:

Astronomy

Feb. 28, 2014 Rise Set
Actual Time 6:34 AM EST 5:48 PM EST
Civil Twilight 6:06 AM EST 6:16 PM EST
Nautical Twilight 5:35 AM EST 6:48 PM EST
Astronomical Twilight 5:03 AM EST 7:19 PM EST
Moon 5:47 AM EST (2/28) 5:22 PM EST (2/28)
Length of Visible Light 12h 09m
Length of Day
11h 14m
Waning Crescent, 1% of the Moon is Illuminated
Feb 28
Waning Crescent
Mar 1
New
Mar 8
First Quarter
Mar 16
Full
Mar 23
Last Quarter

Hourly Weather History & Observations

Time (EST) Temp. Windchill Dew Point Humidity Pressure Visibility Wind Dir Wind Speed Gust Speed Precip Events Conditions
12:53 AM 10.9 °F -2.6 °F -14.1 °F 32% 30.17 in 10.0 mi NW 10.4 mph 20.7 mph N/A   Clear
1:53 AM 10.0 °F 3.6 °F -11.9 °F 37% 30.19 in 10.0 mi Variable 3.5 mph - N/A   Clear
2:53 AM 9.0 °F - -11.9 °F 38% 30.21 in 10.0 mi North - - N/A   Clear
3:53 AM 8.1 °F -2.0 °F -11.9 °F 40% 30.24 in 10.0 mi Variable 5.8 mph - N/A   Clear
4:53 AM 6.1 °F - -11.0 °F 45% 30.27 in 10.0 mi Calm Calm - N/A   Clear
5:53 AM 6.1 °F -2.8 °F -11.0 °F 45% 30.30 in 10.0 mi NW 4.6 mph - N/A   Clear
6:53 AM 5.0 °F - -9.0 °F 52% 30.32 in 10.0 mi Calm Calm - N/A   Clear
7:53 AM 8.1 °F -5.3 °F -9.9 °F 44% 30.36 in 10.0 mi NW 9.2 mph - N/A   Clear
8:53 AM 10.9 °F -0.8 °F -8.0 °F 42% 30.39 in 10.0 mi NW 8.1 mph - N/A   Clear
9:53 AM 15.1 °F 6.4 °F -6.0 °F 39% 30.41 in 10.0 mi Variable 5.8 mph - N/A   Clear
10:53 AM 17.1 °F 10.0 °F -6.0 °F 36% 30.42 in 10.0 mi North 4.6 mph - N/A   Clear
11:53 AM 18.0 °F 9.8 °F -5.1 °F 36% 30.41 in 10.0 mi NW 5.8 mph - N/A   Clear
12:53 PM 21.0 °F 14.6 °F -5.1 °F 32% 30.38 in 10.0 mi Variable 4.6 mph - N/A   Clear
1:53 PM 21.0 °F 12.4 °F -4.0 °F 33% 30.38 in 10.0 mi Variable 6.9 mph - N/A   Clear
2:53 PM 23.0 °F 18.4 °F -2.0 °F 34% 30.38 in 10.0 mi Variable 3.5 mph - N/A   Clear
3:53 PM 21.9 °F 15.7 °F -4.0 °F 32% 30.38 in 10.0 mi West 4.6 mph - N/A   Clear
4:53 PM 21.9 °F - -5.1 °F 30% 30.38 in 10.0 mi Calm Calm - N/A   Clear
5:53 PM 19.9 °F - -5.1 °F 33% 30.39 in 10.0 mi Calm Calm - N/A   Clear
6:53 PM 17.1 °F - -0.9 °F 45% 30.40 in 10.0 mi Calm Calm - N/A   Clear
7:53 PM 12.9 °F - 1.9 °F 62% 30.40 in 10.0 mi Calm Calm - N/A   Clear
8:53 PM 10.9 °F - 1.9 °F 67% 30.41 in 10.0 mi Calm Calm - N/A   Clear
9:53 PM 9.0 °F - 1.9 °F 73% 30.42 in 10.0 mi Calm Calm - N/A   Clear
10:53 PM 8.1 °F - 1.9 °F 76% 30.43 in 10.0 mi Calm Calm - N/A   Clear
11:53 PM 8.1 °F - 1.9 °F 76% 30.42 in 10.0 mi Calm Calm - N/A   Clear